Location: Clover
(42.5131°N, 114.6874°W)
Time: 13:03:20
(UTC+00:00)

Transit 2A Rocket - Pass Details

Date: 12 November 2024
Orbit: 585 x 904 km, 66.7° (Epoch: 02 December)

Event Time Altitude Azimuth Distance (km) Brightness Sun altitude
Rises 00:49:20 0° 335° (NNW) 3,298 8.4 -6.0°
Reaches altitude 10° 00:52:10 10° 346° (NNW) 2,308 7.5 -6.5°
Maximum altitude 00:56:44 30° 47° (NE) 1,291 5.7 -7.3°
Drops below altitude 10° 01:00:56 10° 108° (ESE) 2,112 6.8 -8.0°
Enters shadow 01:03:22 - 120° (ESE) 2,958 7.6 -8.4°
